Weather History for Pocatello, ID

Change the Weather History Date:

Friday, June 6, 2014

  Actual Average Record
Temperature  
Mean Temperature 65 °F 59 °F  
Max Temperature 82 °F 74 °F 97 °F (1977)
Min Temperature 48 °F 44 °F 33 °F (1962)
Degree Days  
Heating Degree Days 0 6  
Month to date heating degree days 12 41  
Since 1 June heating degree days 12 41  
Since 1 July heating degree days 6552 7088  
Cooling Degree Days 0 1  
Month to date cooling degree days 0 5  
Year to date cooling degree days 0 10  
Since 1 June cooling degree days 0 5  
Growing Degree Days 15 (Base 50)    
Moisture  
Dew Point 27 °F    
Average Humidity 26    
Maximum Humidity 38    
Minimum Humidity 13    
Precipitation  
Precipitation 0.00 in 0.04 in 1.45 in (2007)
Month to date precipitation 0.00 0.27  
Year to date precipitation 5.71 6.10  
Snow  
Snow 0.00 in - - ()
Month to date snowfall 0.0  
Since 1 June snowfall 0.0  
Since 1 July snowfall 29.4  
Snow Depth 0.00 in    
Sea Level Pressure  
Sea Level Pressure 29.85 in    
Wind  
Wind Speed 14 mph (SW)    
Max Wind Speed 26 mph    
Max Gust Speed 31 mph    
Visibility 10 miles    
Events      
T = Trace of Precipitation, MM = Missing Value Source: NWS Daily Summary

Daily Weather History Graph

Daily Weather History Graph

Search for Another Location

Airport:

Trip Planner

Search our weather history database for the weather conditions in past years. The results will help you decide how hot, cold, wet, or windy it might be!

Date:

Astronomy

Jun. 06, 2014 Rise Set
Actual Time 5:52 AM MDT 9:06 PM MDT
Civil Twilight 5:17 AM MDT 9:41 PM MDT
Nautical Twilight 4:32 AM MDT 10:26 PM MDT
Astronomical Twilight 3:38 AM MDT 11:20 PM MDT
Moon 2:19 PM MDT (6/6) 1:55 AM MDT (6/6)
Length of Visible Light 16h 23m
Length of Day
15h 14m
First Quarter, 59% of the Moon is Illuminated
Jun 6
First Quarter
Jun 12
Full
Jun 19
Last Quarter
Jun 27
New
Jul 5
First Quarter

Hourly Weather History & Observations

Time (MDT) Temp. Dew Point Humidity Pressure Visibility Wind Dir Wind Speed Gust Speed Precip Events Conditions
12:53 AM 63.0 °F 19.9 °F 19% 29.82 in 10.0 mi SSW 12.7 mph - N/A   Clear
1:53 AM 61.0 °F 19.0 °F 20% 29.81 in 10.0 mi SSW 12.7 mph - N/A   Clear
2:53 AM 59.0 °F 18.0 °F 20% 29.83 in 10.0 mi SSW 11.5 mph - N/A   Clear
3:53 AM 57.0 °F 21.0 °F 25% 29.84 in 10.0 mi SW 8.1 mph - N/A   Clear
4:53 AM 51.1 °F 24.1 °F 35% 29.86 in 10.0 mi SW 9.2 mph - N/A   Clear
5:53 AM 52.0 °F 21.0 °F 30% 29.86 in 10.0 mi SSW 10.4 mph - N/A   Clear
6:53 AM 52.0 °F 26.1 °F 37% 29.88 in 10.0 mi SSW 5.8 mph - N/A   Clear
7:53 AM 62.1 °F 25.0 °F 24% 29.86 in 10.0 mi SW 11.5 mph - N/A   Clear
8:53 AM 64.4 °F 28.4 °F 26% 30.00 in 10.0 mi WSW 15.0 mph - N/A   Clear
9:53 AM 66.9 °F 30.9 °F 26% 29.87 in 10.0 mi WSW 16.1 mph - N/A   Clear
10:53 AM 70.0 °F 37.0 °F 30% 29.87 in 10.0 mi West 11.5 mph - N/A   Clear
11:53 AM 73.9 °F 32.0 °F 21% 29.85 in 10.0 mi SW 11.5 mph 19.6 mph N/A   Clear
12:53 PM 77.0 °F 30.9 °F 19% 29.84 in 10.0 mi West 11.5 mph - N/A   Clear
1:53 PM 78.1 °F 30.9 °F 18% 29.83 in 10.0 mi WSW 13.8 mph 20.7 mph N/A   Clear
2:53 PM 80.6 °F 26.6 °F 14% 29.95 in 10.0 mi SW 17.3 mph 25.3 mph N/A   Clear
3:53 PM 82.0 °F 27.0 °F 13% 29.80 in 10.0 mi WSW 19.6 mph 26.5 mph N/A   Scattered Clouds
4:53 PM 82.0 °F 28.0 °F 14% 29.80 in 10.0 mi WSW 19.6 mph 27.6 mph N/A   Scattered Clouds
5:53 PM 80.1 °F 30.0 °F 16% 29.80 in 10.0 mi WSW 23.0 mph 29.9 mph N/A   Partly Cloudy
6:53 PM 78.1 °F 28.9 °F 17% 29.80 in 10.0 mi WSW 16.1 mph - N/A   Scattered Clouds
7:53 PM 73.9 °F 26.1 °F 17% 29.78 in 10.0 mi WSW 19.6 mph - N/A   Scattered Clouds
8:53 PM 66.9 °F 35.1 °F 31% 29.82 in 10.0 mi WSW 11.5 mph - N/A   Scattered Clouds
9:53 PM 64.9 °F 32.0 °F 29% 29.83 in 10.0 mi SSW 13.8 mph - N/A   Clear
10:53 PM 62.1 °F 28.0 °F 28% 29.86 in 10.0 mi SSW 13.8 mph - N/A   Clear
11:53 PM 61.0 °F 26.1 °F 26% 29.85 in 10.0 mi SSW 15.0 mph - N/A   Clear